Time,TemperatureF,DewpointF,PressureIn,WindDirection,WindDirectionDegrees,WindSpeedMPH,WindSpeedGustMPH,Humidity,HourlyPrecipIn,Conditions,Clouds,dailyrainin,SoftwareType,DateUTC
2013-07-21 07:40:00,69.1,66.7,30.11,SSE,167,0.0,1.0,92,0.00,,,0.00,Wunderground v.1.15,2013-07-21 14:40:00,
2013-07-21 07:50:00,69.4,67.0,30.12,SSE,160,0.0,1.0,92,0.00,,,0.00,Wunderground v.1.15,2013-07-21 14:50:00,
2013-07-21 08:01:00,69.6,66.5,30.13,SSE,156,0.0,1.0,90,0.00,,,0.00,Wunderground v.1.15,2013-07-21 15:01:00,
2013-07-21 08:10:00,69.8,66.1,30.13,SSE,155,0.0,0.0,88,0.00,,,0.00,Wunderground v.1.15,2013-07-21 15:10:00,
2013-07-21 08:20:00,70.2,66.1,30.13,SSE,155,0.0,0.0,87,0.00,,,0.00,Wunderground v.1.15,2013-07-21 15:20:00,
2013-07-21 08:30:00,70.9,66.8,30.13,SSE,155,0.0,1.0,87,0.00,,,0.00,Wunderground v.1.15,2013-07-21 15:30:00,
2013-07-21 08:40:00,71.5,67.4,30.13,North,5,0.0,1.0,87,0.00,,,0.00,Wunderground v.1.15,2013-07-21 15:40:00,
2013-07-21 08:50:00,72.1,66.6,30.13,NE,44,0.0,1.0,83,0.00,,,0.00,Wunderground v.1.15,2013-07-21 15:50:00,
2013-07-21 09:00:00,72.9,66.4,30.13,East,84,0.0,0.0,80,0.00,,,0.00,Wunderground v.1.15,2013-07-21 16:00:00,
2013-07-21 09:10:00,73.4,66.5,30.13,ESE,108,0.0,0.0,79,0.00,,,0.00,Wunderground v.1.15,2013-07-21 16:10:00,
2013-07-21 09:20:00,73.9,66.6,30.13,SSE,167,0.0,0.0,78,0.00,,,0.00,Wunderground v.1.15,2013-07-21 16:20:00,
2013-07-21 09:30:00,74.5,66.8,30.14,North,359,1.0,1.0,77,0.00,,,0.00,Wunderground v.1.15,2013-07-21 16:30:00,
2013-07-21 09:40:00,74.9,66.8,30.14,East,87,1.0,1.0,76,0.00,,,0.00,Wunderground v.1.15,2013-07-21 16:40:00,
2013-07-21 09:50:00,75.7,67.6,30.14,North,7,0.0,0.0,76,0.00,,,0.00,Wunderground v.1.15,2013-07-21 16:50:00,
2013-07-21 10:01:00,77.2,67.5,30.13,ENE,62,1.0,1.0,72,0.00,,,0.00,Wunderground v.1.15,2013-07-21 17:01:00,
2013-07-21 10:10:00,77.7,68.0,30.13,North,356,1.0,1.0,72,0.00,,,0.00,Wunderground v.1.15,2013-07-21 17:10:00,
2013-07-21 10:20:00,77.5,67.4,30.13,WNW,290,2.0,2.0,71,0.00,,,0.00,Wunderground v.1.15,2013-07-21 17:20:00,
2013-07-21 10:30:00,78.3,69.3,30.13,North,1,2.0,2.0,74,0.00,,,0.00,Wunderground v.1.15,2013-07-21 17:30:00,
2013-07-21 10:40:00,78.5,67.9,30.13,ENE,71,2.0,2.0,70,0.00,,,0.00,Wunderground v.1.15,2013-07-21 17:40:00,
2013-07-21 10:50:00,79.7,69.5,30.13,NE,41,2.0,2.0,71,0.00,,,0.00,Wunderground v.1.15,2013-07-21 17:50:00,
2013-07-21 11:00:00,79.5,68.0,30.13,NE,54,2.0,2.0,68,0.00,,,0.00,Wunderground v.1.15,2013-07-21 18:00:00,
2013-07-21 11:10:00,80.5,68.1,30.13,ESE,105,1.0,1.0,66,0.00,,,0.00,Wunderground v.1.15,2013-07-21 18:10:00,
2013-07-21 11:20:00,80.8,67.5,30.13,NE,41,2.0,2.0,64,0.00,,,0.00,Wunderground v.1.15,2013-07-21 18:20:00,
2013-07-21 11:31:00,82.7,66.9,30.12,ESE,105,2.0,2.0,59,0.00,,,0.00,Wunderground v.1.15,2013-07-21 18:31:00,
2013-07-21 11:40:00,83.4,67.1,30.12,NE,46,2.0,6.0,58,0.00,,,0.00,Wunderground v.1.15,2013-07-21 18:40:00,
2013-07-21 11:50:00,82.8,67.5,30.12,NE,39,3.0,4.0,60,0.00,,,0.00,Wunderground v.1.15,2013-07-21 18:50:00,
2013-07-21 12:00:00,84.1,67.7,30.11,ENE,71,3.0,7.0,58,0.00,,,0.00,Wunderground v.1.15,2013-07-21 19:00:00,
2013-07-21 12:10:00,83.6,65.2,30.11,North,354,5.0,5.0,54,0.00,,,0.00,Wunderground v.1.15,2013-07-21 19:10:00,
2013-07-21 12:20:00,83.2,65.4,30.11,NE,46,2.0,2.0,55,0.00,,,0.00,Wunderground v.1.15,2013-07-21 19:20:00,
2013-07-21 12:31:00,84.2,65.2,30.10,NNE,20,2.0,4.0,53,0.00,,,0.00,Wunderground v.1.15,2013-07-21 19:31:00,
2013-07-21 12:40:00,83.6,65.7,30.10,NW,323,3.0,3.0,55,0.00,,,0.00,Wunderground v.1.15,2013-07-21 19:40:00,
2013-07-21 12:50:00,85.4,64.1,30.10,ESE,117,3.0,3.0,49,0.00,,,0.00,Wunderground v.1.15,2013-07-21 19:50:00,
2013-07-21 13:00:00,85.8,63.8,30.10,NE,53,1.0,3.0,48,0.00,,,0.00,Wunderground v.1.15,2013-07-21 20:00:00,
2013-07-21 13:10:00,85.7,63.8,30.09,WNW,295,2.0,2.0,48,0.00,,,0.00,Wunderground v.1.15,2013-07-21 20:10:00,
2013-07-21 13:20:00,86.4,64.4,30.08,NW,326,2.0,2.0,48,0.00,,,0.00,Wunderground v.1.15,2013-07-21 20:20:00,
2013-07-21 13:30:00,85.9,63.3,30.08,SW,226,3.0,4.0,47,0.00,,,0.00,Wunderground v.1.15,2013-07-21 20:30:00,
2013-07-21 13:40:00,85.4,64.1,30.09,SSW,200,3.0,3.0,49,0.00,,,0.00,Wunderground v.1.15,2013-07-21 20:40:00,
2013-07-21 13:50:00,85.2,62.7,30.09,SW,219,3.0,3.0,47,0.00,,,0.00,Wunderground v.1.15,2013-07-21 20:50:00,
2013-07-21 14:01:00,85.1,62.6,30.09,SW,222,4.0,4.0,47,0.00,,,0.00,Wunderground v.1.15,2013-07-21 21:01:00,
2013-07-21 14:10:00,83.8,64.3,30.10,WSW,244,7.0,8.0,52,0.00,,,0.00,Wunderground v.1.15,2013-07-21 21:10:00,
2013-07-21 14:20:00,82.9,64.0,30.10,SW,231,7.0,8.0,53,0.00,,,0.00,Wunderground v.1.15,2013-07-21 21:20:00,
2013-07-21 14:30:00,82.4,64.1,30.10,SSW,192,7.0,7.0,54,0.00,,,0.00,Wunderground v.1.15,2013-07-21 21:30:00,
2013-07-21 14:40:00,81.6,64.4,30.10,WSW,238,4.0,11.0,56,0.00,,,0.00,Wunderground v.1.15,2013-07-21 21:40:00,
2013-07-21 14:50:00,81.1,64.4,30.08,SW,220,5.0,5.0,57,0.00,,,0.00,Wunderground v.1.15,2013-07-21 21:50:00,
2013-07-21 15:00:00,81.0,63.8,30.08,West,269,5.0,5.0,56,0.00,,,0.00,Wunderground v.1.15,2013-07-21 22:00:00,
2013-07-21 15:10:00,81.0,64.3,30.08,SW,234,5.0,8.0,57,0.00,,,0.00,Wunderground v.1.15,2013-07-21 22:10:00,
2013-07-21 15:20:00,80.6,64.5,30.08,West,269,6.0,6.0,58,0.00,,,0.00,Wunderground v.1.15,2013-07-21 22:20:00,
2013-07-21 15:31:00,81.1,63.4,30.08,WNW,283,3.0,3.0,55,0.00,,,0.00,Wunderground v.1.15,2013-07-21 22:31:00,
2013-07-21 15:40:00,81.1,63.4,30.09,WSW,243,3.0,5.0,55,0.00,,,0.00,Wunderground v.1.15,2013-07-21 22:40:00,
2013-07-21 15:50:00,81.6,63.3,30.09,NNE,22,2.0,4.0,54,0.00,,,0.00,Wunderground v.1.15,2013-07-21 22:50:00,
2013-07-21 16:00:00,80.5,66.3,30.09,WSW,251,2.0,2.0,62,0.00,,,0.00,Wunderground v.1.15,2013-07-21 23:00:00,
2013-07-21 16:10:00,80.2,66.5,30.09,SE,126,1.0,1.0,63,0.00,,,0.00,Wunderground v.1.15,2013-07-21 23:10:00,
2013-07-21 16:20:00,80.0,66.3,30.09,East,82,1.0,1.0,63,0.00,,,0.00,Wunderground v.1.15,2013-07-21 23:20:00,
2013-07-21 16:30:00,79.4,66.6,30.09,ESE,120,1.0,1.0,65,0.00,,,0.00,Wunderground v.1.15,2013-07-21 23:30:00,
2013-07-21 16:40:00,78.7,66.4,30.09,South,184,0.0,0.0,66,0.00,,,0.00,Wunderground v.1.15,2013-07-21 23:40:00,
2013-07-21 16:50:00,78.7,66.4,30.08,SSE,167,0.0,2.0,66,0.00,,,0.00,Wunderground v.1.15,2013-07-21 23:50:00,
2013-07-21 17:00:00,78.4,65.7,30.09,ENE,70,0.0,2.0,65,0.00,,,0.00,Wunderground v.1.15,2013-07-22 00:00:00,
2013-07-21 17:10:00,77.2,64.5,30.09,West,276,1.0,1.0,65,0.00,,,0.00,Wunderground v.1.15,2013-07-22 00:10:00,
2013-07-21 17:20:00,76.7,64.5,30.09,NNW,330,0.0,0.0,66,0.00,,,0.00,Wunderground v.1.15,2013-07-22 00:20:00,
2013-07-21 20:20:00,73.5,64.7,30.12,SSW,209,0.0,0.0,74,0.00,,,0.00,Wunderground v.1.15,2013-07-22 03:20:00,
2013-07-21 20:30:00,73.4,65.4,30.13,SSW,209,0.0,0.0,76,0.00,,,0.00,Wunderground v.1.15,2013-07-22 03:30:00,
2013-07-21 20:40:00,73.3,65.7,30.13,SSW,209,0.0,0.0,77,0.00,,,0.00,Wunderground v.1.15,2013-07-22 03:40:00,
2013-07-21 20:50:00,73.1,65.5,30.13,SSW,212,0.0,0.0,77,0.00,,,0.00,Wunderground v.1.15,2013-07-22 03:50:00,
2013-07-21 21:00:00,72.7,65.1,30.14,SSW,212,0.0,0.0,77,0.00,,,0.00,Wunderground v.1.15,2013-07-22 04:00:00,
2013-07-21 21:10:00,72.4,65.2,30.14,SSW,212,0.0,0.0,78,0.00,,,0.00,Wunderground v.1.15,2013-07-22 04:10:00,